Terug naar catalogus

STARLINK-32456

ActiefCommunicatieVLEO
NORAD 62041·PAYLOAD·🇺🇸 United States

Gelanceerd Nov 21, 2024 vanaf Cape Canaveral Space Force Station

Loading…

Volgende Passages (komende 24 uur)

TLE

VersSource: CelesTrak SupGP

Epoch: Sep 15, 2026, 03:48 UTC

1 62041C 24216K   26258.15881944 -.00022976  00000+0 -83232-3 0  2587
2 62041  42.9991 266.5561 0001359 268.0004 304.6831 15.27584550    16

Volg STARLINK-32456 in realtime met AllMySat

Download on the App Store